Location: Newark
(33.6333°S, 78.8500°W)
Time: 13:19:40
(UTC+00:00)

ISS - Pass Details

Date: 19 August 2019
Orbit: 411 x 421 km, 51.6° (Epoch: 23 September)

Event Time Altitude Azimuth Distance (km) Brightness Sun altitude
Rises 00:20:57 0° 328° (NNW) 2,355 0.5 -19.9°
Reaches altitude 10° 00:23:06 10° 335° (NNW) 1,496 -0.6 -20.3°
Enters shadow 00:25:11 31° 358° (N) 766 -2.5 -20.7°
